This demonstration page uses our WeatherBlox Daily Observations layout. Learn more.

Left ArrowRight Arrow

30.00354, -91.81873

Hourly Observations for September 17, 2022

Temp ( °F °C ) Dew Point ( °F °C ) Humidity (%) Winds ( mph kmh ) Pressure ( in mb ) Visibility ( mi km ) Precip ( " mm )
12:53 am 00:53 Clear 74 23.3 70 21.1 87 87 ESE 3 6 30.04 1017 10 16 0.00 0.00
1:53 am 01:53 Clear 73 22.8 70 21.1 90 90 Calm 30.03 1017 10 16 0.00 0.00
2:53 am 02:53 Clear 72 22.2 69 20.6 91 91 E 5 7 30.02 1017 10 16 0.00 0.00
3:53 am 03:53 Clear 71 21.7 69 20.6 93 93 Calm 30.00 1016 9 14 0.00 0.00
4:53 am 04:53 Clear with Mist and Fog 69 20.6 67 19.4 93 93 Calm 30.00 1016 5 8 0.00 0.00
5:53 am 05:53 Clear with Mist and Fog 72 22.2 69 20.6 91 91 NE 6 9 30.01 1016 6 10 0.00 0.00
6:53 am 06:53 Clear 72 22.2 69 20.6 91 91 ENE 5 7 30.02 1017 10 16 0.00 0.00
7:53 am 07:53 Sunny 75 23.9 70 21.1 84 84 NE 6 9 30.04 1017 8 13 0.00 0.00
8:53 am 08:53 Sunny 78 25.6 71 21.7 79 79 ENE 9 15 30.04 1017 10 16 0.00 0.00
9:53 am 09:53 Sunny 83 28.3 71 21.7 67 67 ENE 9 15 30.06 1018 10 16 0.00 0.00
10:53 am 10:53 Sunny 87 30.6 69 20.6 55 55 E 10 17 30.06 1018 10 16 0.00 0.00
11:53 am 11:53 Sunny 88 31.1 69 20.6 54 54 ENE 9 15 30.06 1018 10 16 0.00 0.00
12:53 pm 12:53 Sunny 90 32.2 69 20.6 50 50 E 8 13 30.04 1017 10 16 0.00 0.00
1:53 pm 13:53 Mostly Sunny 91 32.8 69 20.6 49 49 ENE 10 17 30.03 1017 10 16 0.00 0.00
2:53 pm 14:53 Mostly Sunny 91 32.8 69 20.6 49 49 ENE 9 15 30.00 1016 10 16 0.00 0.00
3:53 pm 15:53 Mostly Sunny 93 33.9 70 21.1 47 47 NE 13 20 29.98 1015 10 16 0.00 0.00
4:53 pm 16:53 Sunny 90 32.2 69 20.6 50 50 E 12 19 29.98 1015 10 16 0.00 0.00
5:53 pm 17:53 Mostly Sunny 89 31.7 68 20 50 50 E 10 17 29.98 1015 10 16 0.00 0.00
6:53 pm 18:53 Mostly Cloudy 85 29.4 71 21.7 63 63 ESE 7 11 29.99 1016 10 16 0.00 0.00
7:53 pm 19:53 Mostly Cloudy 83 28.3 73 22.8 72 72 ESE 8 13 30.00 1016 10 16 0.00 0.00
8:53 pm 20:53 Cloudy 81 27.2 72 22.2 74 74 ESE 7 11 30.01 1016 10 16 0.00 0.00
9:53 pm 21:53 Clear 79 26.1 72 22.2 79 79 ESE 9 15 30.01 1016 10 16 0.00 0.00
10:53 pm 22:53 Clear 79 26.1 72 22.2 79 79 ESE 5 7 30.01 1016 10 16 0.00 0.00
11:53 pm 23:53 Clear 78 25.6 72 22.2 82 82 ESE 8 13 30.00 1016 10 16 0.00 0.00

Powered by AerisWeather